[[{"header":{"parameterUnit":"m.s-1","parameterCategory":2,"la1":30.2991,"la2":30.254,"lo1":-89.0895,"lo2":-89.0444,"dy":0.0017,"dx":0.0017,"nx":28,"ny":28,"refTime":"2025-07-23T03:00:00:Z","depth":"0","parameterNumber":2,"parameterNumberName":"U-component_of_CURRENTS"},"data":[0,0,0,0,0,0,0,0,0,0,0,0,0,0,0,0,0,0,0,0,0,0,0,0,0,0,0,0,0,0,0,0,0,0,0,0,0,0,0,0,0,0,0,0,0,0,0,0,0,0,0,0,0,0,0,0,0,0,-0.2423,-0.2423,0,-0.2389,-0.2389,-0.2388,-0.2344,-0.2343,-0.2342,-0.2342,-0.2342,-0.2343,-0.2344,0,0,0,0,0,0,0,0,0,0,0,0,0,-0.2495,-0.2494,-0.2423,-0.2423,-0.2423,-0.2389,-0.2389,-0.2388,-0.2344,-0.2343,-0.2342,-0.2341,-0.2342,-0.2343,-0.2344,0,0,0,0,0,0,0,0,0,0,0,0,0,-0.2462,-0.2493,-0.2423,-0.2397,-0.2394,-0.2389,-0.2389,-0.2388,-0.2344,-0.2343,-0.2342,-0.2341,-0.2342,-0.2343,-0.2344,-0.237,0,0,-0.2347,-0.2347,0,0,0,0,0,0,0,0,-0.2464,-0.2459,-0.2401,-0.2399,-0.2396,-0.237,-0.2414,-0.2384,-0.2344,-0.2362,-0.2342,-0.2341,-0.2356,-0.2356,-0.235,-0.237,-0.237,-0.2347,-0.2347,-0.2348,-0.2348,0,0,0,0,0,0,0,-0.2466,-0.2461,-0.2409,-0.2401,-0.2398,-0.2402,-0.2396,-0.2408,-0.2366,-0.2361,-0.2358,-0.2355,-0.2355,-0.2349,-0.235,-0.237,-0.2347,-0.2348,-0.2348,-0.2349,-0.2439,-0.2441,0,0,0,0,0,0,-0.247,-0.2463,-0.241,-0.2408,-0.2429,-0.2402,-0.2395,-0.2379,-0.2365,-0.2361,-0.2356,-0.2353,-0.2348,-0.2349,-0.235,-0.2381,-0.2348,-0.2349,-0.2349,-0.2437,-0.2439,-0.2441,0,0,0,0,0,0,-0.2472,-0.2465,-0.2412,-0.2436,-0.243,-0.2401,-0.2384,-0.2379,-0.2367,-0.2361,-0.2358,-0.2349,-0.2347,-0.2349,-0.238,-0.2381,-0.2349,-0.235,-0.2435,-0.2438,-0.244,-0.2443,0,0,0,0,0,0,-0.2474,-0.2466,-0.2451,-0.2436,-0.2428,-0.2411,-0.2385,-0.2379,-0.2368,-0.2364,-0.2355,-0.2353,-0.2347,-0.2378,-0.2381,-0.2382,-0.2351,-0.2433,-0.2436,-0.244,-0.2441,-0.2446,-0.245,0,0,0,0,0,-0.2476,-0.2454,-0.2451,-0.2444,-0.241,-0.2411,-0.2408,-0.2385,-0.2369,-0.2369,-0.2378,-0.2353,-0.2401,-0.2381,-0.2383,-0.2384,-0.2431,-0.2435,-0.2439,-0.2439,-0.2445,-0.245,0,0,0,0,0,0,-0.2475,-0.2447,-0.2443,-0.2413,-0.2417,-0.2404,-0.2391,-0.2388,-0.2391,-0.2386,-0.238,-0.2381,-0.2408,-0.241,-0.2388,-0.2426,-0.2411,-0.2416,-0.241,-0.2416,-0.242,-0.2416,-0.2352,0,0,0,0,0,-0.2472,-0.2444,-0.2441,-0.2418,-0.2418,-0.2409,-0.2403,-0.2398,-0.2401,-0.2399,-0.2398,-0.2408,-0.2429,-0.2432,-0.245,-0.2472,-0.2479,-0.2477,-0.2481,-0.2485,-0.2487,-0.2493,-0.2497,-0.2455,-0.2455,-0.2455,0,0,-0.2463,-0.2446,-0.2428,-0.2416,-0.2409,-0.2412,-0.2402,-0.2397,-0.2402,-0.2403,-0.2406,-0.2425,-0.2443,-0.2467,-0.2478,-0.2464,-0.251,-0.249,-0.2492,-0.2493,-0.2497,-0.2501,-0.2504,-0.2458,-0.2457,-0.2457,0,0,-0.2437,-0.2421,-0.2394,-0.2403,-0.2402,-0.2407,-0.241,-0.241,-0.2409,-0.2431,-0.2437,-0.2469,-0.2481,-0.2502,-0.2513,-0.256,-0.2538,-0.2556,-0.2565,-0.257,-0.2573,-0.2575,-0.2618,-0.2624,-0.2551,-0.2551,-0.2551,0,-0.2427,-0.2394,-0.2393,-0.2385,-0.2386,-0.2407,-0.2402,-0.2415,-0.2428,-0.244,-0.2433,-0.2483,-0.25,-0.2538,-0.2556,-0.2566,-0.2572,-0.2534,-0.2572,-0.2574,-0.2576,-0.262,-0.2627,-0.2552,-0.2552,-0.2552,-0.2552,0,-0.2394,-0.2374,-0.2364,-0.2357,-0.2369,-0.2368,-0.2397,-0.2413,-0.2421,-0.2438,-0.2478,-0.2512,-0.2539,-0.2554,-0.2567,-0.2598,-0.2601,-0.2578,-0.2547,-0.258,-0.2626,-0.2632,-0.2553,-0.2553,-0.2552,-0.2552,0,0,-0.2338,-0.2337,-0.233,-0.2325,-0.2353,-0.2355,-0.2384,-0.2413,-0.2426,-0.2459,-0.2476,-0.2535,-0.2556,-0.2573,-0.2596,-0.2609,-0.2648,-0.2596,-0.2596,-0.2622,-0.268,-0.2544,-0.2538,-0.2611,-0.2611,-0.2612,-0.2715,0,-0.2306,-0.2274,-0.2297,-0.2287,-0.2271,-0.2323,-0.2348,-0.2388,-0.2421,-0.2451,-0.2505,-0.2532,-0.2561,-0.2572,-0.2597,-0.2639,-0.2661,-0.2624,-0.266,-0.2663,-0.2521,-0.2538,-0.2281,-0.2337,-0.2722,-0.2723,-0.2724,0,-0.2245,-0.2237,-0.2208,-0.2233,-0.2236,-0.2252,-0.2293,-0.2322,-0.2395,-0.2422,-0.2475,-0.2514,-0.2585,-0.2574,-0.2666,-0.2634,-0.266,-0.2685,-0.2688,-0.2558,-0.2536,-0.2364,-0.2334,-0.2211,-0.2733,-0.2733,-0.2732,0,-0.2154,-0.2165,-0.2135,-0.2142,-0.2186,-0.2198,-0.2234,-0.2303,-0.2336,-0.2398,-0.2432,-0.251,-0.2556,-0.2596,-0.2673,-0.2661,-0.2751,-0.2739,-0.2651,-0.2645,-0.2432,-0.2404,-0.2264,-0.2776,-0.2776,-0.2775,-0.2775,0,-0.2075,-0.2055,-0.209,-0.207,-0.208,-0.2128,-0.2151,-0.2205,-0.2278,-0.2335,-0.2406,-0.2467,-0.2554,-0.2625,-0.2673,-0.2686,-0.2755,-0.2656,-0.2647,-0.243,-0.2401,-0.2289,-0.2359,-0.2779,-0.2778,-0.2778,-0.2777,0,-0.1958,-0.1977,-0.1955,-0.1999,-0.2023,-0.2022,-0.211,-0.2139,-0.2211,-0.2285,-0.2306,-0.2445,-0.2532,-0.2612,-0.2698,-0.2677,-0.2624,-0.2685,-0.2443,-0.2399,-0.2151,-0.2235,-0.2248,-0.2202,-0.2596,-0.2593,-0.2591,0,-0.1889,-0.185,-0.189,-0.1903,-0.1925,-0.1952,-0.1993,-0.2086,-0.2135,-0.2283,-0.2325,-0.2428,-0.2508,-0.2581,-0.251,-0.2521,-0.2551,-0.23,-0.2211,-0.209,-0.2179,-0.227,-0.2239,-0.1971,-0.1964,-0.1958,-0.1953,0,-0.1765,-0.1774,-0.1775,-0.1807,-0.1843,-0.1893,-0.1961,-0.2,-0.2127,-0.2197,-0.2319,-0.2384,-0.24,-0.2271,-0.2231,-0.2212,-0.2162,-0.2173,-0.2091,-0.1708,-0.1759,-0.1721,-0.2006,-0.1899,-0.1904,-0.1908,-0.1911,-0.1913,-0.1681,-0.1673,-0.1685,-0.1722,-0.1771,-0.1842,-0.1867,-0.1961,-0.2042,-0.2139,-0.2251,-0.2235,-0.2032,-0.191,-0.1871,-0.1528,-0.1823,-0.1436,-0.157,-0.1689,-0.1551,-0.1729,-0.1568,-0.1571,-0.1574,-0.1576,-0.1579,0,-0.1585,-0.16,-0.1616,-0.1671,-0.1706,-0.1763,-0.1855,-0.1867,-0.1945,-0.1957,-0.2025,-0.1737,-0.152,-0.1317,-0.0946,-0.0883,-0.0916,-0.0917,-0.0951,-0.0967,-0.1097,-0.0958,-0.0599,-0.0599,-0.0599,-0.0599,-0.06,-0.06,-0.1537,-0.1529,-0.156,-0.16,-0.164,-0.1662,-0.1701,-0.171,-0.1673,-0.1531,-0.1332,-0.1266,-0.0962,-0.0784,-0.0499,-0.0474,-0.0542,-0.0573,-0.0756,-0.0761,-0.0818,-0.0872,-0.0743,-0.0346,-0.0346,-0.0437,-0.0438,-0.0439]},{"header":{"parameterUnit":"m.s-1","parameterCategory":2,"la1":30.2991,"la2":30.254,"lo1":-89.0895,"lo2":-89.0444,"dy":0.0017,"dx":0.0017,"nx":28,"ny":28,"refTime":"2025-07-23T03:00:00:Z","depth":"0","parameterNumber":3,"parameterNumberName":"V-component_of_CURRENTS"},"data":[0,0,0,0,0,0,0,0,0,0,0,0,0,0,0,0,0,0,0,0,0,0,0,0,0,0,0,0,0,0,0,0,0,0,0,0,0,0,0,0,0,0,0,0,0,0,0,0,0,0,0,0,0,0,0,0,0,0,-0.1297,-0.1297,0,-0.1307,-0.1307,-0.1307,-0.1244,-0.1243,-0.1241,-0.1239,-0.1178,-0.1178,-0.1178,0,0,0,0,0,0,0,0,0,0,0,0,0,-0.1237,-0.1239,-0.1297,-0.1297,-0.1297,-0.1307,-0.1307,-0.1308,-0.1245,-0.1243,-0.1241,-0.1239,-0.1178,-0.1178,-0.1178,0,0,0,0,0,0,0,0,0,0,0,0,0,-0.1256,-0.1239,-0.1297,-0.1268,-0.1265,-0.1307,-0.1307,-0.1308,-0.1245,-0.1243,-0.124,-0.1238,-0.1178,-0.1178,-0.1178,-0.1229,0,0,-0.1178,-0.1178,0,0,0,0,0,0,0,0,-0.1255,-0.1258,-0.1272,-0.127,-0.1267,-0.1273,-0.1264,-0.1278,-0.1246,-0.1252,-0.1239,-0.1236,-0.1206,-0.1203,-0.121,-0.1226,-0.1223,-0.1178,-0.1177,-0.1177,-0.1177,0,0,0,0,0,0,0,-0.1254,-0.1258,-0.13,-0.1272,-0.127,-0.126,-0.1259,-0.1267,-0.1241,-0.1251,-0.1247,-0.125,-0.1203,-0.1211,-0.1208,-0.1222,-0.1178,-0.1177,-0.1177,-0.1177,-0.1173,-0.1173,0,0,0,0,0,0,-0.1257,-0.1257,-0.13,-0.13,-0.1256,-0.1263,-0.1262,-0.1273,-0.1242,-0.1236,-0.1253,-0.1247,-0.1212,-0.1208,-0.1206,-0.1233,-0.1177,-0.1177,-0.1177,-0.1173,-0.1173,-0.1173,0,0,0,0,0,0,-0.1256,-0.1261,-0.1299,-0.1279,-0.1283,-0.1267,-0.1279,-0.1274,-0.1274,-0.1244,-0.1236,-0.1255,-0.121,-0.1206,-0.1184,-0.1231,-0.1177,-0.1177,-0.1173,-0.1173,-0.1173,-0.1307,0,0,0,0,0,0,-0.1254,-0.1261,-0.1273,-0.128,-0.1284,-0.1328,-0.1281,-0.1277,-0.1281,-0.1274,-0.1245,-0.1236,-0.1208,-0.1185,-0.1184,-0.123,-0.1177,-0.1173,-0.1173,-0.1173,-0.1303,-0.1311,-0.1319,0,0,0,0,0,-0.1252,-0.1281,-0.1273,-0.1278,-0.13,-0.133,-0.1332,-0.131,-0.1284,-0.1297,-0.1251,-0.1237,-0.1183,-0.1185,-0.1184,-0.1231,-0.1173,-0.1173,-0.1173,-0.1299,-0.131,-0.1319,0,0,0,0,0,0,-0.1259,-0.1278,-0.1269,-0.13,-0.1315,-0.1319,-0.1331,-0.132,-0.1301,-0.1285,-0.1243,-0.1233,-0.1233,-0.1202,-0.1205,-0.122,-0.1174,-0.1174,-0.127,-0.128,-0.1288,-0.1355,-0.1177,0,0,0,0,0,-0.1269,-0.1295,-0.1308,-0.1333,-0.1342,-0.1339,-0.1348,-0.1339,-0.1324,-0.1314,-0.1293,-0.1257,-0.1238,-0.1232,-0.1211,-0.1232,-0.122,-0.1253,-0.1262,-0.1269,-0.1318,-0.1358,-0.1377,-0.1172,-0.1172,-0.1172,0,0,-0.1277,-0.1293,-0.1305,-0.1336,-0.1342,-0.1388,-0.1337,-0.136,-0.1396,-0.1312,-0.1339,-0.1292,-0.1245,-0.1257,-0.1255,-0.1236,-0.1301,-0.1269,-0.1277,-0.1322,-0.136,-0.1381,-0.14,-0.1172,-0.1172,-0.1172,0,0,-0.1324,-0.1322,-0.1365,-0.139,-0.1414,-0.142,-0.143,-0.1441,-0.1437,-0.1453,-0.1396,-0.1388,-0.1352,-0.1351,-0.1337,-0.1384,-0.1342,-0.1346,-0.1458,-0.1495,-0.1515,-0.1531,-0.1472,-0.1483,-0.1354,-0.1355,-0.1355,0,-0.1334,-0.1398,-0.1382,-0.1438,-0.1476,-0.1441,-0.151,-0.1511,-0.1512,-0.153,-0.1469,-0.1456,-0.1418,-0.146,-0.1458,-0.1418,-0.1382,-0.1432,-0.1514,-0.1531,-0.1546,-0.1482,-0.1493,-0.1361,-0.136,-0.136,-0.1359,0,-0.1416,-0.1477,-0.1506,-0.1571,-0.1602,-0.1655,-0.1662,-0.1683,-0.1663,-0.1667,-0.1687,-0.163,-0.1629,-0.1602,-0.1544,-0.1626,-0.154,-0.1522,-0.1508,-0.1577,-0.1501,-0.151,-0.137,-0.1368,-0.1366,-0.1365,0,0,-0.1416,-0.1546,-0.1556,-0.163,-0.1685,-0.1725,-0.1783,-0.1842,-0.1891,-0.1865,-0.193,-0.1894,-0.1857,-0.1839,-0.177,-0.1795,-0.1839,-0.1704,-0.1703,-0.1677,-0.1843,-0.1665,-0.1655,-0.1829,-0.1833,-0.1836,-0.1723,0,-0.1493,-0.1651,-0.1683,-0.1825,-0.1911,-0.1919,-0.1982,-0.202,-0.2021,-0.2063,-0.2022,-0.2039,-0.1944,-0.1935,-0.1954,-0.1859,-0.1878,-0.1867,-0.1754,-0.175,-0.1613,-0.1668,-0.1465,-0.1339,-0.1731,-0.1732,-0.1733,0,-0.1543,-0.1669,-0.1832,-0.1992,-0.2024,-0.2094,-0.2197,-0.2244,-0.2281,-0.2274,-0.2289,-0.2238,-0.2245,-0.2162,-0.2099,-0.208,-0.1997,-0.1926,-0.1919,-0.1734,-0.1593,-0.1344,-0.134,-0.1122,-0.1746,-0.1745,-0.1744,0,-0.1547,-0.175,-0.1897,-0.1953,-0.212,-0.2191,-0.2258,-0.2318,-0.2357,-0.241,-0.2419,-0.2423,-0.2378,-0.2334,-0.2151,-0.2136,-0.2056,-0.2019,-0.1788,-0.1769,-0.157,-0.1529,-0.1385,-0.2048,-0.2048,-0.2049,-0.2049,0,-0.1593,-0.1707,-0.1925,-0.2005,-0.2171,-0.2255,-0.2376,-0.2427,-0.2497,-0.2532,-0.2522,-0.2517,-0.2423,-0.2337,-0.2216,-0.1989,-0.2107,-0.183,-0.1761,-0.1595,-0.1559,-0.1337,-0.1294,-0.2044,-0.2045,-0.2046,-0.2047,0,-0.1538,-0.1681,-0.1869,-0.2105,-0.2168,-0.2277,-0.2427,-0.25,-0.2557,-0.2598,-0.2614,-0.2576,-0.2435,-0.2306,-0.2177,-0.2015,-0.1709,-0.178,-0.1532,-0.1438,-0.1003,-0.0975,-0.0844,-0.0725,-0.1509,-0.1504,-0.15,0,-0.1529,-0.162,-0.1901,-0.2017,-0.2126,-0.2292,-0.2378,-0.2497,-0.256,-0.2602,-0.2611,-0.252,-0.2406,-0.2115,-0.1837,-0.1587,-0.1513,-0.1266,-0.1245,-0.0969,-0.0889,-0.0903,-0.0816,-0.0991,-0.0983,-0.0977,-0.0972,0,-0.1509,-0.1596,-0.175,-0.2002,-0.2149,-0.2295,-0.2437,-0.249,-0.2584,-0.2599,-0.2567,-0.2497,-0.2165,-0.1777,-0.1436,-0.1267,-0.1055,-0.1126,-0.0943,-0.0572,-0.0484,-0.0334,-0.1014,-0.0916,-0.0922,-0.0926,-0.0929,-0.0931,-0.1459,-0.156,-0.1762,-0.1979,-0.2153,-0.2286,-0.2329,-0.2437,-0.2486,-0.2439,-0.2447,-0.22,-0.1723,-0.1187,-0.1001,-0.0419,-0.0614,-0.0246,-0.0256,-0.031,-0.0154,-0.0665,-0.0435,-0.0437,-0.044,-0.0442,-0.0444,0,-0.1397,-0.1525,-0.1732,-0.1988,-0.2135,-0.2241,-0.2348,-0.2314,-0.2294,-0.2182,-0.2093,-0.1529,-0.1,-0.0543,0.0179,0.0444,0.0437,0.0537,0.0558,0.0585,0.0085,0.0156,0.0649,0.0649,0.0648,0.0648,0.0648,0.0648,-0.1368,-0.1523,-0.1653,-0.1904,-0.206,-0.2124,-0.2137,-0.2055,-0.1925,-0.1576,-0.1226,-0.1014,-0.0402,0.0441,0.1089,0.1141,0.125,0.1247,0.1215,0.0903,0.0829,0.0757,0.0838,0.1466,0.1467,0.1787,0.179,0.1793]}],[{"header":{"parameterUnit":"m.s-1","parameterCategory":2,"la1":30.2991,"la2":30.254,"lo1":-89.0895,"lo2":-89.0444,"dy":0.0017,"dx":0.0017,"nx":28,"ny":28,"refTime":"2025-07-23T03:00:00:Z","depth":"2","parameterNumber":2,"parameterNumberName":"U-component_of_CURRENTS"},"data":[0,0,0,0,0,0,0,0,0,0,0,0,0,0,0,0,0,0,0,0,0,0,0,0,0,0,0,0,0,0,0,0,0,0,0,0,0,0,0,0,0,0,0,0,0,0,0,0,0,0,0,0,0,0,0,0,0,0,-0.2052,-0.2053,0,-0.2156,-0.2157,-0.2158,-0.2232,-0.2232,-0.2232,-0.2233,-0.2468,-0.2474,-0.248,0,0,0,0,0,0,0,0,0,0,0,0,0,-0.1945,-0.1947,-0.2052,-0.2053,-0.2054,-0.2155,-0.2157,-0.2159,-0.2232,-0.2232,-0.2232,-0.2233,-0.2466,-0.2473,-0.2481,0,0,0,0,0,0,0,0,0,0,0,0,0,-0.2017,-0.1948,-0.2051,-0.21,-0.2106,-0.2155,-0.2157,-0.2159,-0.2232,-0.2232,-0.2233,-0.2233,-0.2464,-0.2473,-0.2482,-0.2527,0,0,-0.2509,-0.2513,0,0,0,0,0,0,0,0,-0.2013,-0.2021,-0.2092,-0.2097,-0.2103,-0.2179,-0.2206,-0.2288,-0.2231,-0.2187,-0.2233,-0.2233,-0.2382,-0.2397,-0.2418,-0.2538,-0.2548,-0.251,-0.2515,-0.2519,-0.2521,0,0,0,0,0,0,0,-0.2008,-0.2017,-0.2095,-0.2093,-0.21,-0.2127,-0.2138,-0.2221,-0.2285,-0.2191,-0.2195,-0.2203,-0.2386,-0.2409,-0.2424,-0.2551,-0.2509,-0.2517,-0.2523,-0.2526,-0.2689,-0.2688,0,0,0,0,0,0,-0.1988,-0.2013,-0.2092,-0.2098,-0.2055,-0.2128,-0.214,-0.2156,-0.2281,-0.2299,-0.2202,-0.2206,-0.2393,-0.2414,-0.2433,-0.2453,-0.2519,-0.2527,-0.2532,-0.269,-0.2689,-0.2688,0,0,0,0,0,0,-0.1985,-0.1994,-0.2088,-0.2055,-0.2069,-0.2129,-0.2146,-0.2158,-0.2201,-0.2288,-0.2309,-0.2235,-0.2394,-0.242,-0.2521,-0.2465,-0.2531,-0.2539,-0.2692,-0.269,-0.2688,-0.2521,0,0,0,0,0,0,-0.1982,-0.1993,-0.2003,-0.2054,-0.207,-0.212,-0.2146,-0.2159,-0.2202,-0.2208,-0.2323,-0.2344,-0.2397,-0.2508,-0.253,-0.2479,-0.2546,-0.2693,-0.2691,-0.2689,-0.2528,-0.2514,-0.2502,0,0,0,0,0,-0.1978,-0.1984,-0.2003,-0.2012,-0.208,-0.212,-0.2131,-0.2177,-0.2203,-0.2219,-0.2301,-0.2341,-0.2509,-0.2516,-0.2542,-0.2491,-0.2694,-0.2691,-0.2689,-0.2534,-0.2517,-0.2503,0,0,0,0,0,0,-0.1947,-0.1993,-0.2015,-0.2037,-0.2076,-0.2131,-0.2143,-0.2186,-0.2261,-0.2274,-0.2364,-0.239,-0.2453,-0.2509,-0.2514,-0.2531,-0.2594,-0.2597,-0.2467,-0.2452,-0.244,-0.2454,-0.2554,0,0,0,0,0,-0.1942,-0.1957,-0.2008,-0.2026,-0.2039,-0.2097,-0.2122,-0.2158,-0.2224,-0.2258,-0.2338,-0.2409,-0.2459,-0.2489,-0.2563,-0.2592,-0.2667,-0.2567,-0.2554,-0.2543,-0.2572,-0.262,-0.2614,-0.268,-0.268,-0.268,0,0,-0.1936,-0.1961,-0.1972,-0.2019,-0.2048,-0.2073,-0.2114,-0.2149,-0.2171,-0.2275,-0.2339,-0.2397,-0.2468,-0.249,-0.2517,-0.2529,-0.256,-0.254,-0.2529,-0.2566,-0.2617,-0.2611,-0.2605,-0.2679,-0.2679,-0.2679,0,0,-0.1925,-0.1949,-0.1959,-0.1986,-0.2028,-0.2059,-0.2073,-0.214,-0.2166,-0.2228,-0.2291,-0.2323,-0.2422,-0.2435,-0.2455,-0.2425,-0.251,-0.243,-0.2355,-0.2398,-0.2393,-0.239,-0.2458,-0.2463,-0.2396,-0.2396,-0.2395,0,-0.1919,-0.194,-0.1968,-0.1983,-0.2,-0.2053,-0.2071,-0.2099,-0.2195,-0.2216,-0.2231,-0.2342,-0.2382,-0.2396,-0.2356,-0.2391,-0.2456,-0.2397,-0.238,-0.2378,-0.2378,-0.2449,-0.2456,-0.2387,-0.2388,-0.2389,-0.239,0,-0.1919,-0.1936,-0.1937,-0.1971,-0.1992,-0.2013,-0.2049,-0.2082,-0.2112,-0.2145,-0.2189,-0.2237,-0.2299,-0.2271,-0.2298,-0.2294,-0.2355,-0.2374,-0.2413,-0.2361,-0.244,-0.245,-0.2375,-0.2378,-0.2381,-0.2383,0,0,-0.1907,-0.1935,-0.1936,-0.1949,-0.1988,-0.2008,-0.2022,-0.2056,-0.2085,-0.2114,-0.2164,-0.2146,-0.2181,-0.2209,-0.2231,-0.2229,-0.2234,-0.2282,-0.2288,-0.2341,-0.2365,-0.2201,-0.2198,-0.2252,-0.2253,-0.2254,-0.2415,0,-0.1904,-0.1918,-0.1936,-0.1952,-0.1963,-0.1997,-0.2014,-0.2046,-0.2076,-0.2142,-0.214,-0.221,-0.2151,-0.2189,-0.2162,-0.2277,-0.2259,-0.2193,-0.242,-0.2428,-0.2278,-0.2202,-0.1913,-0.2013,-0.2426,-0.2427,-0.2429,0,-0.1901,-0.191,-0.1921,-0.1949,-0.1957,-0.1973,-0.2012,-0.2036,-0.2103,-0.2137,-0.2162,-0.2231,-0.2257,-0.2222,-0.2298,-0.2269,-0.2293,-0.2336,-0.2344,-0.2267,-0.2281,-0.2138,-0.2018,-0.2447,-0.2446,-0.2444,-0.2443,0,-0.1875,-0.19,-0.1904,-0.1913,-0.1953,-0.1959,-0.198,-0.2028,-0.2089,-0.2164,-0.2255,-0.2275,-0.2356,-0.2375,-0.2408,-0.2388,-0.2515,-0.2509,-0.2375,-0.2368,-0.2206,-0.2179,-0.2534,-0.2533,-0.2533,-0.2533,-0.2532,0,-0.1862,-0.1865,-0.1891,-0.1893,-0.1907,-0.1939,-0.1978,-0.2004,-0.2124,-0.2202,-0.2259,-0.2332,-0.24,-0.2476,-0.247,-0.2443,-0.2553,-0.2364,-0.2381,-0.2135,-0.2101,-0.2556,-0.2557,-0.2539,-0.2537,-0.2536,-0.2535,0,-0.1829,-0.1847,-0.1854,-0.1884,-0.1893,-0.1898,-0.1995,-0.2054,-0.2152,-0.228,-0.2337,-0.2449,-0.2484,-0.2536,-0.2601,-0.2525,-0.2531,-0.2482,-0.219,-0.2163,-0.2354,-0.2345,-0.2384,-0.2379,-0.2375,-0.2371,-0.2368,0,-0.1808,-0.1809,-0.1834,-0.1841,-0.185,-0.1882,-0.1929,-0.2039,-0.214,-0.2306,-0.2397,-0.2486,-0.2465,-0.25,-0.2378,-0.2338,-0.2437,-0.2072,-0.1926,-0.2318,-0.2332,-0.2329,-0.2325,-0.1675,-0.1666,-0.166,-0.1654,0,-0.1767,-0.1778,-0.1787,-0.1806,-0.184,-0.1895,-0.1981,-0.2072,-0.2214,-0.2295,-0.2366,-0.236,-0.2327,-0.2086,-0.202,-0.1951,-0.2049,-0.1927,-0.244,-0.1719,-0.165,-0.1664,-0.1684,-0.1593,-0.16,-0.1604,-0.1607,-0.161,-0.1732,-0.1728,-0.1747,-0.1757,-0.1818,-0.1888,-0.1884,-0.2006,-0.2084,-0.2157,-0.2228,-0.2079,-0.2008,-0.1691,-0.1596,-0.1484,-0.1636,-0.1533,-0.1555,-0.1584,-0.1434,-0.1356,-0.1221,-0.1225,-0.1228,-0.1231,-0.1234,0,-0.1671,-0.1681,-0.1697,-0.173,-0.178,-0.1816,-0.1911,-0.1875,-0.1863,-0.1906,-0.1884,-0.1571,-0.134,-0.1274,-0.0966,-0.0924,-0.094,-0.0892,-0.0886,-0.0942,-0.0993,-0.0815,-0.0439,-0.0438,-0.0437,-0.0436,0,0,-0.1638,-0.1622,-0.1625,-0.1663,-0.1695,-0.1687,-0.168,-0.1602,-0.157,-0.1446,-0.1305,-0.1364,-0.1232,-0.0884,-0.077,-0.0551,-0.0777,-0.0511,-0.1126,-0.1176,-0.1228,-0.1308,-0.1088,0,0,0,0,0]},{"header":{"parameterUnit":"m.s-1","parameterCategory":2,"la1":30.2991,"la2":30.254,"lo1":-89.0895,"lo2":-89.0444,"dy":0.0017,"dx":0.0017,"nx":28,"ny":28,"refTime":"2025-07-23T03:00:00:Z","depth":"2","parameterNumber":3,"parameterNumberName":"V-component_of_CURRENTS"},"data":[0,0,0,0,0,0,0,0,0,0,0,0,0,0,0,0,0,0,0,0,0,0,0,0,0,0,0,0,0,0,0,0,0,0,0,0,0,0,0,0,0,0,0,0,0,0,0,0,0,0,0,0,0,0,0,0,0,0,0.0025,0.0026,0,0.0109,0.011,0.0111,0.0185,0.0186,0.0187,0.0187,0.0528,0.0536,0.0545,0,0,0,0,0,0,0,0,0,0,0,0,0,-0.0055,-0.0054,0.0025,0.0026,0.0027,0.0109,0.011,0.0111,0.0185,0.0186,0.0187,0.0188,0.0525,0.0535,0.0545,0,0,0,0,0,0,0,0,0,0,0,0,0,0.0,-0.0054,0.0024,0.0072,0.0078,0.0108,0.011,0.0111,0.0185,0.0186,0.0187,0.0188,0.0522,0.0534,0.0547,0.0601,0,0,0.0585,0.0591,0,0,0,0,0,0,0,0,-0.0003,0.0003,0.0064,0.0069,0.0075,0.0137,0.0207,0.0288,0.0184,0.0145,0.0187,0.0189,0.042,0.0441,0.0452,0.0617,0.0632,0.0586,0.0594,0.0599,0.0603,0,0,0,0,0,0,0,-0.0007,0.0,0.0059,0.0065,0.0072,0.0095,0.0105,0.0221,0.0281,0.0149,0.0154,0.0161,0.0425,0.0439,0.0461,0.0637,0.0586,0.0597,0.0605,0.061,0.0926,0.0926,0,0,0,0,0,0,-0.0022,-0.0004,0.0056,0.0062,0.0037,0.0096,0.0106,0.0117,0.0274,0.0297,0.016,0.0164,0.0417,0.0446,0.0474,0.0528,0.0599,0.0611,0.0618,0.0925,0.0926,0.0927,0,0,0,0,0,0,-0.0024,-0.0017,0.0053,0.003,0.004,0.0096,0.0107,0.0118,0.0142,0.028,0.0308,0.0175,0.0419,0.0456,0.0575,0.0544,0.0617,0.0628,0.0924,0.0925,0.0926,0.0652,0,0,0,0,0,0,-0.0026,-0.0018,-0.0019,0.0029,0.0041,0.0071,0.0106,0.0118,0.0144,0.015,0.0302,0.0333,0.0423,0.0555,0.0587,0.0562,0.0638,0.0923,0.0924,0.0926,0.066,0.0644,0.063,0,0,0,0,0,-0.0029,-0.0031,-0.0019,-0.0012,0.004,0.0071,0.0079,0.0123,0.0143,0.015,0.0248,0.0329,0.0589,0.0565,0.0603,0.0581,0.0922,0.0924,0.0926,0.0667,0.0647,0.0631,0,0,0,0,0,0,-0.0061,-0.0023,-0.0008,0.0003,0.0032,0.0083,0.0091,0.012,0.0196,0.0211,0.0339,0.0377,0.0478,0.0583,0.0553,0.0686,0.0771,0.078,0.0562,0.0545,0.053,0.0527,0.0648,0,0,0,0,0,-0.0072,-0.0065,-0.0024,-0.0017,-0.0006,0.004,0.0057,0.0086,0.0156,0.0188,0.029,0.0411,0.0513,0.0568,0.0693,0.0756,0.084,0.0776,0.076,0.0746,0.0775,0.0847,0.0839,0.0933,0.0933,0.0933,0,0,-0.0083,-0.0062,-0.0057,-0.0024,0.0001,0.0012,0.0054,0.0076,0.0087,0.0221,0.028,0.0379,0.0529,0.0594,0.0648,0.0672,0.0754,0.0749,0.0734,0.0773,0.0848,0.0838,0.083,0.0935,0.0934,0.0934,0,0,-0.01,-0.0083,-0.0083,-0.0066,-0.0035,-0.001,-0.0006,0.0046,0.007,0.013,0.0226,0.0292,0.0462,0.0523,0.0585,0.0575,0.0687,0.0628,0.0524,0.0589,0.058,0.0574,0.0599,0.0598,0.0597,0.0597,0.0596,0,-0.0114,-0.0105,-0.0078,-0.0075,-0.0064,-0.0023,-0.0021,0.0002,0.0085,0.0109,0.0133,0.0327,0.042,0.0489,0.0465,0.0532,0.0593,0.0552,0.056,0.0557,0.0555,0.0584,0.0585,0.0584,0.0585,0.0586,0.0588,0,-0.0127,-0.0123,-0.0123,-0.0108,-0.0097,-0.0088,-0.0059,-0.0041,-0.0013,0.002,0.0098,0.0195,0.0309,0.0321,0.0383,0.0416,0.0467,0.0533,0.0578,0.0527,0.0562,0.0568,0.0565,0.057,0.0574,0.0577,0,0,-0.0151,-0.0134,-0.0135,-0.0136,-0.0113,-0.0105,-0.0102,-0.0077,-0.007,-0.0019,0.0007,0.0095,0.014,0.0217,0.0284,0.0308,0.0282,0.0394,0.0403,0.037,0.0406,0.0398,0.0406,0.0344,0.0346,0.0347,0.0408,0,-0.0167,-0.0167,-0.0156,-0.0165,-0.0165,-0.0143,-0.0146,-0.0123,-0.0094,-0.006,-0.0002,0.0068,0.0101,0.0135,0.0158,0.0303,0.0302,0.0259,0.051,0.0518,0.0476,0.0414,0.0462,0.052,0.0415,0.0416,0.0417,0,-0.0191,-0.0183,-0.0187,-0.0193,-0.0192,-0.0197,-0.0191,-0.0185,-0.0143,-0.0121,-0.0073,0.0005,0.006,0.0091,0.0237,0.0216,0.0289,0.0362,0.0368,0.0479,0.0524,0.0579,0.0537,0.043,0.0429,0.0428,0.0427,0,-0.0225,-0.0218,-0.022,-0.0219,-0.0211,-0.0218,-0.022,-0.0199,-0.0195,-0.0146,-0.0122,-0.0038,0.0025,0.0132,0.0259,0.0265,0.042,0.0455,0.0501,0.05,0.0657,0.0668,0.0536,0.0536,0.0536,0.0536,0.0536,0,-0.0255,-0.0261,-0.0235,-0.0241,-0.0256,-0.0245,-0.0264,-0.0256,-0.0232,-0.0218,-0.0148,-0.0109,0.0046,0.0151,0.0253,0.0392,0.0415,0.0485,0.0522,0.0557,0.0558,0.0606,0.0613,0.0538,0.0538,0.0537,0.0537,0,-0.0295,-0.0276,-0.0284,-0.0274,-0.0276,-0.0288,-0.0303,-0.0317,-0.0282,-0.0255,-0.0236,-0.0137,-0.0016,0.0115,0.0297,0.0391,0.0521,0.0554,0.0555,0.059,0.0551,0.0544,0.0621,0.0621,0.0621,0.0622,0.0622,0,-0.031,-0.0314,-0.0314,-0.0328,-0.0325,-0.0339,-0.0364,-0.035,-0.0338,-0.0272,-0.0243,-0.0143,-0.007,0.0164,0.0348,0.051,0.0499,0.0647,0.0661,0.0534,0.0563,0.0556,0.0549,0.0741,0.0742,0.0743,0.0744,0,-0.0339,-0.034,-0.0352,-0.038,-0.0403,-0.0417,-0.0421,-0.0416,-0.038,-0.035,-0.0283,-0.0228,-0.0012,0.0211,0.0421,0.0517,0.0627,0.0669,0.0584,0.0696,0.065,0.0676,0.0666,0.0753,0.0752,0.0751,0.0751,0.075,-0.0368,-0.0388,-0.0414,-0.0443,-0.0466,-0.0474,-0.0509,-0.0484,-0.0472,-0.0422,-0.0339,-0.0188,0.0065,0.0394,0.0504,0.0639,0.0653,0.0745,0.0743,0.0739,0.0726,0.0682,0.0786,0.0785,0.0785,0.0784,0.0784,0,-0.0398,-0.0434,-0.0476,-0.0508,-0.0557,-0.0551,-0.0542,-0.0568,-0.0563,-0.0462,-0.042,-0.009,0.02,0.0423,0.068,0.0794,0.0775,0.0778,0.0785,0.078,0.0775,0.0761,0.0832,0.0831,0.083,0.0829,0,0,-0.0422,-0.0469,-0.0497,-0.058,-0.0622,-0.0694,-0.071,-0.0702,-0.0625,-0.056,-0.0365,-0.0133,0.0274,0.0463,0.0609,0.0722,0.0665,0.0689,0.0659,0.0641,0.0631,0.0794,0.0772,0,0,0,0,0]}],[{"header":{"parameterUnit":"m.s-1","parameterCategory":2,"la1":30.2991,"la2":30.254,"lo1":-89.0895,"lo2":-89.0444,"dy":0.0017,"dx":0.0017,"nx":28,"ny":28,"refTime":"2025-07-23T03:00:00:Z","depth":"4","parameterNumber":2,"parameterNumberName":"U-component_of_CURRENTS"},"data":[0,0,0,0,0,0,0,0,0,0,0,0,0,0,0,0,0,0,0,0,0,0,0,0,0,0,0,0,0,0,0,0,0,0,0,0,0,0,0,0,0,0,0,0,0,0,0,0,0,0,0,0,0,0,0,0,0,0,-0.1471,-0.1471,0,-0.1519,-0.152,-0.152,-0.155,-0.1551,-0.1551,-0.1551,-0.1588,-0.1589,-0.1589,0,0,0,0,0,0,0,0,0,0,0,0,0,-0.1399,-0.14,-0.1471,-0.1472,-0.1472,-0.1519,-0.152,-0.152,-0.155,-0.1551,-0.1551,-0.1551,-0.1588,-0.1589,-0.159,0,0,0,0,0,0,0,0,0,0,0,0,0,-0.1436,-0.14,-0.1471,-0.1494,-0.1497,-0.1519,-0.152,-0.152,-0.155,-0.1551,-0.1551,-0.1551,-0.1588,-0.1589,-0.159,-0.1587,0,0,-0.1593,-0.1593,0,0,0,0,0,0,0,0,-0.1434,-0.1438,-0.149,-0.1492,-0.1496,-0.153,-0.1508,-0.1543,-0.155,-0.1528,-0.1551,-0.1552,-0.1568,-0.1571,-0.1577,-0.1589,-0.159,-0.1593,-0.1594,-0.1594,-0.1594,0,0,0,0,0,0,0,-0.1431,-0.1436,-0.1488,-0.1491,-0.1494,-0.15,-0.1506,-0.1515,-0.1544,-0.153,-0.1533,-0.154,-0.157,-0.1576,-0.1578,-0.1591,-0.1593,-0.1594,-0.1595,-0.1595,-0.1645,-0.1646,0,0,0,0,0,0,-0.1428,-0.1434,-0.1487,-0.149,-0.1467,-0.1501,-0.1508,-0.1518,-0.1544,-0.1549,-0.154,-0.1542,-0.1574,-0.1577,-0.158,-0.1634,-0.1594,-0.1595,-0.1596,-0.1644,-0.1645,-0.1646,0,0,0,0,0,0,-0.1426,-0.1432,-0.1485,-0.1464,-0.1471,-0.1502,-0.1513,-0.1518,-0.1547,-0.1552,-0.1557,-0.1566,-0.1575,-0.1578,-0.16,-0.1633,-0.1596,-0.1596,-0.1643,-0.1644,-0.1645,-0.1706,0,0,0,0,0,0,-0.1424,-0.1431,-0.145,-0.1464,-0.1473,-0.1509,-0.1513,-0.1519,-0.155,-0.1554,-0.1576,-0.1578,-0.1575,-0.1599,-0.1601,-0.1634,-0.1597,-0.1643,-0.1644,-0.1645,-0.1703,-0.1709,-0.1714,0,0,0,0,0,-0.1421,-0.144,-0.1451,-0.1458,-0.1493,-0.1509,-0.1515,-0.1537,-0.1552,-0.1565,-0.1579,-0.1579,-0.1609,-0.16,-0.1603,-0.1637,-0.1642,-0.1643,-0.1645,-0.1701,-0.1708,-0.1714,0,0,0,0,0,0,-0.1421,-0.1446,-0.1458,-0.1485,-0.1502,-0.1515,-0.1537,-0.155,-0.1573,-0.1584,-0.1586,-0.159,-0.1621,-0.1616,-0.1606,-0.1653,-0.1626,-0.1628,-0.1667,-0.1674,-0.1679,-0.167,-0.1598,0,0,0,0,0,-0.1429,-0.1452,-0.1469,-0.1494,-0.1505,-0.1526,-0.1542,-0.1555,-0.1571,-0.1584,-0.1597,-0.1612,-0.1626,-0.164,-0.1645,-0.1673,-0.1645,-0.1695,-0.1701,-0.1706,-0.1698,-0.1681,-0.1684,-0.1651,-0.1651,-0.1651,0,0,-0.1438,-0.1454,-0.1469,-0.1496,-0.1514,-0.1537,-0.1537,-0.1566,-0.1592,-0.1583,-0.1627,-0.1631,-0.1635,-0.1664,-0.1678,-0.1669,-0.1701,-0.1708,-0.1712,-0.1702,-0.1683,-0.1686,-0.1688,-0.1652,-0.1652,-0.1652,0,0,-0.1455,-0.148,-0.1502,-0.1518,-0.1548,-0.156,-0.1573,-0.1597,-0.1618,-0.165,-0.1653,-0.1671,-0.1698,-0.1705,-0.1712,-0.1749,-0.1726,-0.1762,-0.179,-0.1774,-0.1776,-0.1778,-0.1748,-0.1747,-0.177,-0.177,-0.177,0,-0.1467,-0.1494,-0.151,-0.1533,-0.1552,-0.1574,-0.1597,-0.1622,-0.1652,-0.1665,-0.1671,-0.1706,-0.1715,-0.1745,-0.1762,-0.1763,-0.1743,-0.1769,-0.1781,-0.1782,-0.1783,-0.1751,-0.1749,-0.1773,-0.1773,-0.1772,-0.1772,0,-0.149,-0.1522,-0.1537,-0.1574,-0.1595,-0.162,-0.1648,-0.1676,-0.1703,-0.1719,-0.1755,-0.1762,-0.1775,-0.1794,-0.1794,-0.1814,-0.1794,-0.1787,-0.1765,-0.179,-0.1755,-0.1752,-0.1778,-0.1776,-0.1776,-0.1775,0,0,-0.1483,-0.1543,-0.1551,-0.1573,-0.1618,-0.1633,-0.168,-0.1713,-0.1738,-0.1774,-0.1794,-0.1833,-0.183,-0.1836,-0.1842,-0.1842,-0.1837,-0.1825,-0.1822,-0.1795,-0.1792,-0.1681,-0.1666,-0.1836,-0.1835,-0.1835,-0.1766,0,-0.1497,-0.1546,-0.1572,-0.162,-0.1643,-0.1675,-0.1712,-0.1747,-0.1773,-0.1796,-0.1817,-0.1833,-0.185,-0.1853,-0.1861,-0.1836,-0.183,-0.1855,-0.177,-0.1767,-0.1666,-0.1659,-0.1834,-0.1763,-0.1762,-0.1762,-0.1761,0,-0.1501,-0.1535,-0.1585,-0.1636,-0.1649,-0.1683,-0.1728,-0.176,-0.1797,-0.1814,-0.1837,-0.1841,-0.1854,-0.1855,-0.1835,-0.1852,-0.1825,-0.1808,-0.1805,-0.1674,-0.1649,-0.1732,-0.1754,-0.1755,-0.1755,-0.1756,-0.1756,0,-0.1471,-0.1537,-0.1579,-0.1599,-0.1664,-0.1691,-0.1721,-0.1765,-0.1778,-0.1811,-0.1807,-0.1837,-0.1826,-0.1817,-0.1797,-0.1809,-0.1759,-0.1762,-0.1639,-0.163,-0.1726,-0.1725,-0.1735,-0.1735,-0.1735,-0.1735,-0.1736,0,-0.1454,-0.1489,-0.1573,-0.1592,-0.1632,-0.1679,-0.1711,-0.1742,-0.1768,-0.1753,-0.1804,-0.1771,-0.1814,-0.1794,-0.1784,-0.1691,-0.1743,-0.1626,-0.16,-0.1754,-0.1756,-0.1724,-0.1723,-0.1733,-0.1733,-0.1734,-0.1734,0,-0.1406,-0.1467,-0.1516,-0.1595,-0.1618,-0.1643,-0.1689,-0.1692,-0.1733,-0.1705,-0.1704,-0.1716,-0.1668,-0.1704,-0.1672,-0.164,-0.1586,-0.1545,-0.17,-0.1686,-0.1471,-0.1475,-0.1375,-0.137,-0.1366,-0.1363,-0.136,0,-0.1383,-0.1409,-0.1505,-0.1526,-0.1563,-0.1606,-0.1615,-0.1665,-0.1646,-0.1636,-0.1591,-0.1571,-0.1567,-0.1429,-0.1493,-0.1464,-0.146,-0.1433,-0.1458,-0.1446,-0.1432,-0.1442,-0.145,-0.1354,-0.1353,-0.1352,-0.1351,0,-0.1332,-0.1384,-0.1422,-0.1464,-0.1489,-0.1496,-0.1506,-0.1481,-0.1496,-0.1554,-0.1415,-0.1373,-0.1319,-0.1308,-0.1312,-0.1296,-0.1452,-0.1392,-0.1401,-0.1424,-0.142,-0.1412,-0.1425,-0.1337,-0.1339,-0.134,-0.1341,0,-0.1294,-0.1306,-0.1359,-0.1373,-0.1399,-0.1347,-0.1379,-0.132,-0.1303,-0.1297,-0.124,-0.1227,-0.1261,-0.1216,-0.1209,-0.1199,-0.1181,-0.1159,-0.1179,-0.1194,-0.1177,-0.1148,-0.094,0,0,0,0,0,-0.1245,-0.1234,-0.1252,-0.1242,-0.1255,-0.1255,-0.1274,-0.13,-0.132,-0.1177,-0.1201,-0.1133,-0.1077,-0.1085,-0.1038,-0.1163,-0.122,-0.1108,-0.1213,-0.1262,-0.1278,-0.1279,0,0,0,0,0,0,-0.1206,-0.123,-0.1215,-0.1112,-0.1075,-0.1052,-0.1059,-0.1082,-0.101,-0.1048,-0.1021,-0.1061,-0.1037,-0.1074,-0.1006,-0.1018,-0.1062,-0.1128,-0.1125,-0.1253,-0.1267,-0.128,-0.1287,0,0,0,0,0]},{"header":{"parameterUnit":"m.s-1","parameterCategory":2,"la1":30.2991,"la2":30.254,"lo1":-89.0895,"lo2":-89.0444,"dy":0.0017,"dx":0.0017,"nx":28,"ny":28,"refTime":"2025-07-23T03:00:00:Z","depth":"4","parameterNumber":3,"parameterNumberName":"V-component_of_CURRENTS"},"data":[0,0,0,0,0,0,0,0,0,0,0,0,0,0,0,0,0,0,0,0,0,0,0,0,0,0,0,0,0,0,0,0,0,0,0,0,0,0,0,0,0,0,0,0,0,0,0,0,0,0,0,0,0,0,0,0,0,0,-0.0009,-0.0009,0,0.0023,0.0024,0.0024,0.0057,0.0058,0.0058,0.0059,0.0108,0.0109,0.011,0,0,0,0,0,0,0,0,0,0,0,0,0,-0.0049,-0.0048,-0.0009,-0.0009,-0.0008,0.0023,0.0024,0.0024,0.0057,0.0058,0.0058,0.0059,0.0108,0.0109,0.011,0,0,0,0,0,0,0,0,0,0,0,0,0,-0.0026,-0.0048,-0.0009,0.0012,0.0015,0.0023,0.0024,0.0024,0.0057,0.0058,0.0058,0.0059,0.0108,0.0109,0.011,0.0103,0,0,0.0114,0.0115,0,0,0,0,0,0,0,0,-0.0027,-0.0025,0.0009,0.0011,0.0013,0.0037,0.0028,0.0052,0.0057,0.004,0.0059,0.006,0.0086,0.0089,0.0093,0.0106,0.0108,0.0114,0.0115,0.0116,0.0116,0,0,0,0,0,0,0,-0.0029,-0.0026,0.0003,0.0009,0.0012,0.0018,0.0022,0.0033,0.0059,0.0042,0.0044,0.0049,0.0087,0.0091,0.0094,0.0109,0.0114,0.0115,0.0116,0.0117,0.0121,0.012,0,0,0,0,0,0,-0.0032,-0.0027,0.0002,0.0004,-0.0005,0.0019,0.0023,0.0029,0.0058,0.0063,0.0048,0.005,0.0089,0.0093,0.0096,0.0108,0.0116,0.0117,0.0118,0.0121,0.0121,0.012,0,0,0,0,0,0,-0.0033,-0.003,0.0001,-0.0011,-0.0006,0.0019,0.0024,0.0029,0.0036,0.0063,0.0068,0.0051,0.0089,0.0094,0.0102,0.0109,0.0117,0.0119,0.0122,0.0121,0.012,0.012,0,0,0,0,0,0,-0.0035,-0.0031,-0.0032,-0.0011,-0.0005,0.0003,0.0024,0.0029,0.0037,0.004,0.0067,0.0072,0.009,0.01,0.0103,0.0111,0.012,0.0123,0.0122,0.012,0.012,0.0119,0.0117,0,0,0,0,0,-0.0036,-0.0041,-0.0032,-0.0029,-0.0007,0.0003,0.0005,0.0025,0.0037,0.0035,0.0052,0.0071,0.0095,0.0101,0.0105,0.0113,0.0124,0.0122,0.0121,0.0121,0.0119,0.0117,0,0,0,0,0,0,-0.0058,-0.0037,-0.0027,-0.0025,-0.0014,0.0008,0.0008,0.0021,0.0033,0.0037,0.0064,0.007,0.0075,0.0088,0.0093,0.0107,0.0112,0.0111,0.0111,0.0109,0.0107,0.0116,0.0121,0,0,0,0,0,-0.0064,-0.0062,-0.0041,-0.0041,-0.0036,-0.0015,-0.001,0.0003,0.0018,0.0025,0.0043,0.0059,0.007,0.0085,0.0089,0.0102,0.014,0.0107,0.0106,0.0104,0.0112,0.0177,0.0183,0.0115,0.0115,0.0115,0,0,-0.0073,-0.0061,-0.006,-0.0045,-0.0034,-0.0031,-0.001,-0.0004,0.0002,0.0027,0.0037,0.0048,0.0067,0.0078,0.0083,0.0095,0.0141,0.0102,0.0102,0.011,0.0176,0.0183,0.019,0.0114,0.0114,0.0114,0,0,-0.0088,-0.0078,-0.008,-0.0073,-0.0059,-0.0047,-0.0046,-0.0027,-0.0015,-0.001,0.0011,0.0035,0.004,0.0073,0.0087,0.0079,0.0121,0.0068,0.0084,0.0147,0.0154,0.0161,0.0216,0.0228,0.008,0.008,0.008,0,-0.0099,-0.0093,-0.0081,-0.0081,-0.0074,-0.0055,-0.0054,-0.0044,-0.0025,-0.0012,-0.0012,0.0023,0.0045,0.0082,0.0081,0.008,0.0115,0.0095,0.0149,0.0156,0.0163,0.0219,0.0232,0.008,0.008,0.008,0.008,0,-0.0111,-0.0108,-0.011,-0.0101,-0.0097,-0.0094,-0.0076,-0.0071,-0.0058,-0.0039,-0.0014,0.0018,0.0046,0.0055,0.0068,0.0123,0.0131,0.0133,0.0161,0.017,0.0227,0.0241,0.008,0.008,0.008,0.008,0,0,-0.0128,-0.0119,-0.0119,-0.0118,-0.0104,-0.0103,-0.0096,-0.0076,-0.007,-0.0042,-0.0022,0.002,0.0043,0.0059,0.0087,0.0151,0.0234,0.0163,0.0167,0.0232,0.037,0.0329,0.0341,0.0247,0.0249,0.0251,0.0391,0,-0.0137,-0.0139,-0.0132,-0.0136,-0.0134,-0.0119,-0.0118,-0.01,-0.0083,-0.0066,-0.0008,0.0008,0.0042,0.0053,0.0126,0.0186,0.0269,0.0196,0.034,0.0344,0.0319,0.0355,0.0258,0.0401,0.0405,0.0407,0.0409,0,-0.0149,-0.0145,-0.0147,-0.0148,-0.0147,-0.0153,-0.0143,-0.014,-0.0106,-0.0093,-0.0046,-0.0019,0.0065,0.0086,0.0246,0.0193,0.029,0.0355,0.0362,0.0336,0.0328,0.0389,0.0434,0.0432,0.043,0.0428,0.0427,0,-0.016,-0.0159,-0.016,-0.0159,-0.0157,-0.0161,-0.0163,-0.0145,-0.0152,-0.0109,-0.0117,-0.0013,0.0012,0.0154,0.0277,0.0267,0.0453,0.0456,0.0525,0.0524,0.052,0.0512,0.0605,0.0605,0.0604,0.0604,0.0604,0,-0.0167,-0.0172,-0.0169,-0.017,-0.019,-0.0179,-0.02,-0.019,-0.0185,-0.0204,-0.0134,-0.0131,0.0029,0.0135,0.028,0.0433,0.0465,0.0542,0.0563,0.0513,0.0503,0.0531,0.052,0.0609,0.0608,0.0607,0.0606,0,-0.0179,-0.0174,-0.0183,-0.0186,-0.0197,-0.0211,-0.0249,-0.0272,-0.0257,-0.0281,-0.0276,-0.0211,-0.0072,0.0103,0.0321,0.0408,0.0579,0.0639,0.0573,0.0585,0.0613,0.0601,0.0732,0.0731,0.0731,0.0731,0.0731,0,-0.0184,-0.0187,-0.0205,-0.0235,-0.0242,-0.027,-0.0309,-0.0308,-0.0337,-0.0338,-0.0358,-0.025,-0.018,0.0106,0.0287,0.0577,0.0613,0.0689,0.0663,0.0622,0.063,0.0617,0.0606,0.0731,0.0731,0.0731,0.0731,0,-0.0199,-0.0207,-0.0223,-0.0278,-0.0323,-0.0371,-0.0417,-0.0442,-0.0452,-0.0444,-0.0408,-0.0282,-0.0132,0.0089,0.0311,0.0513,0.0624,0.0688,0.069,0.0667,0.0623,0.0628,0.0616,0.073,0.073,0.073,0.073,0,-0.0225,-0.0247,-0.0281,-0.0331,-0.0393,-0.0457,-0.047,-0.0494,-0.0506,-0.0486,-0.0476,-0.0308,-0.0206,0.0056,0.0256,0.045,0.0496,0.0534,0.0545,0.0548,0.0439,0.0353,0.041,0,0,0,0,0,-0.025,-0.0289,-0.0341,-0.0403,-0.0464,-0.0493,-0.0548,-0.0555,-0.0559,-0.0534,-0.0495,-0.0342,-0.0081,0.0023,0.0219,0.0251,0.0521,0.0478,0.0569,0.0728,0.0728,0.0627,0,0,0,0,0,0,-0.0278,-0.0325,-0.0349,-0.045,-0.0499,-0.0572,-0.0599,-0.0603,-0.0568,-0.0542,-0.0382,-0.032,-0.0037,-0.017,0.022,0.0271,0.0344,0.0611,0.0613,0.0728,0.0728,0.0728,0.0624,0,0,0,0,0]}]]